{"data":{"norad_id":51116,"epoch":"2026-09-20T03:37:39.883584Z","epoch_age_seconds":78325,"freshness":"FRESH","line1":"1 51116U 22005N   26263.15115606 -.00000054  00000+0  10013-4 0  9995","line2":"2 51116  53.1590 125.4156 0001261  91.7299 268.3847 15.31707311258372","mean_motion":15.31707311,"eccentricity":0.0001261,"inclination_deg":53.159,"raan_deg":125.4156,"arg_perigee_deg":91.7299,"mean_anomaly_deg":268.3847,"bstar":1.0013e-5,"rev_number":25837,"period_min":94.012739226261,"perigee_km":469.85456096085,"apogee_km":471.58184224269,"semimajor_km":6848.8552016018,"source":"CELESTRAK","updated_at":"2026-09-20T09:00:39.586219Z"}}